Find Kosmos-798

NORAD ID: 8614 Int'l Des: 1976-008 Owner: GUKOSR Country: SU operational
LEOCIRCULAR

Live Position

Loading 3D Globe...

About Kosmos-798

Description loading...

Upcoming Passes

Passes for default location (London). Set your location on the main map for personalized predictions.

Altitude History

Loading altitude history...

Two-Line Element Set

1 8614U 76008H 26106.74884494 -.00000023 00000-0 -58628-4 0 9993
2 8614 74.0529 275.8591 0048129 251.7384 119.8928 12.37759019268984
Epoch: Apr 16, 2026 • Age: 7 hours

Current Status

Altitude 1520.9 km
Velocity 7.11 km/s
Sub-Earth Point 21.94°N, 124.91°W
Type other

Most Searched